Hourly Data Report for October 03, 2017

All times are specified in Local Standard Time (LST). Add 1 hour to adjust for Daylight Saving Time where and when it is observed.

DEBERT
NOVA SCOTIA

45°25'00.000" N
63°28'00.000" W
37.50 m
8201390
71317
ZDB

Download Data

Hourly Data (October 2017)
Hourly Data Report for October 3, 2017
Temp Definition
°C
Dew Point Temp Definition
°C
Rel Hum Definition
%
Wind Dir Definition
10's deg

Wind Spd Definition
km/h
Visibility Definition
km
Stn Press Definition
kPa
Hmdx Definition


Wind Chill Definition


Weather Definition


TIME
00:00 7.3 3.9 79 31 9   102.84     LegendNANA
01:00 8.1 3.9 75 33 6   102.89     LegendNANA
02:00 7.7 4.0 78 35 5   102.93     LegendNANA
03:00 7.3 3.7 78 34 4   102.96     LegendNANA
04:00 5.2 3.3 87 26 9   103.00     LegendNANA
05:00 5.3 3.6 88 28 10   103.06     LegendNANA
06:00 4.5 2.9 89 31 7   103.12     LegendNANA
07:00 4.5 3.2 91 30 8   103.17     LegendNANA
08:00 8.4 4.9 79 29 10   103.17     LegendNANA
09:00 11.0 5.8 70 29 7   103.18     LegendNANA
10:00 12.3 4.9 61 36 15   103.20     LegendNANA
11:00 13.3 4.2 54 36 10   103.13     LegendNANA
12:00 14.1 4.7 53 34 10   103.13     LegendNANA
13:00 14.0 5.0 55 32 14   103.11     LegendNANA
14:00 13.5 4.2 53 31 10   103.09     LegendNANA
15:00 12.9 3.5 53 32 11   102.95     LegendNANA
16:00 12.1 5.5 64 26 10   102.85     LegendNANA
17:00 11.3 6.1 70 25 12   102.83     LegendNANA
18:00 9.7 5.6 76 27 9   102.81     LegendNANA
19:00 8.6 5.7 82 28 4   102.83     LegendNANA
20:00 6.5 4.3 86   0   102.82     LegendNANA
21:00 4.7 2.9 88 8 2   102.72     LegendNANA
22:00 3.5 2.0 90 0 1   102.68     LegendNANA
23:00 3.5 2.5 93 8 3   102.62     LegendNANA

Notes on Data Quality.

Legend

  • E = Estimated
  • M = Missing
  • NA = Not Available
  • ‡ = Partner data that is not subject to review by the National Climate Archives
Date modified: